Terug naar catalogus

STARLINK-33986

ActiefCommunicatieVLEO
NORAD 63870·PAYLOAD·🇺🇸 United States

Gelanceerd May 10, 2025 vanaf Vandenberg Space Force Base

Loading…

Volgende Passages (komende 24 uur)

TLE

VersSource: CelesTrak SupGP

Epoch: Sep 15, 2026, 03:22 UTC

1 63870C 25094G   26258.14076389 -.00017245  00000+0 -59994-3 0  2582
2 63870  69.9987 115.1405 0003198 273.4087  39.9954 15.29586390    11

Volg STARLINK-33986 in realtime met AllMySat

Download on the App Store